Flag for Uruguay Weather past 2 weeks in Florida, Uruguay

Now
55 °F

Clear.


Feels Like: 54 °F
Forecast: 55 / 85 °F
Wind: 6 mph from North

Location: Carrasco

Current Time: Apr 2, 2015 at 4:27:50 AM

Latest Report: Apr 2, 2015 at 4:00 AM


Visibility: 10 mi

Pressure: 29.98 "Hg

Humidity: 77%

Dew point: 48 °F

Location of FloridaLocation

Historic Weather in Florida — Graph

°F

Florida temperature yesterday

Maximum temperature yesterday: 77 °F (at 2:00 PM)
Minimum temperature yesterday: 52 °F (at 6:00 AM)
Average temperature yesterday: 65 °F

Past Weeks' High & Low Weather Summary

 TemperatureHumidityPressure
High88 °F (Mar 20, 1:00 PM)100% (Mar 25, 7:00 AM)30.21 "Hg (Mar 25, 7:00 AM)
Low50 °F (Mar 28, 7:00 AM)36% (Apr 1, 2:00 PM)29.74 "Hg (Mar 20, 2:00 PM)
Average67 °F72%30.03 "Hg
* Reported Mar 18 3:00 AM — Apr 2 3:00 AM, Florida, Weather by CustomWeather, © 2015

Note: Actual official high and low records may vary slightly from our data, if they occured in-between our weather recording intervals... More about our weather records

Advertising

Florida weather history for previous 24 hours

 ConditionsComfort  
Time TempWeatherWind HumidityBarometerVisibility
3:00 AM
Thu, Apr 2
54 °FClear.3 mph82%29.98 "Hg10 mi
2:00 AM57 °FClear.No wind77%29.98 "Hg10 mi
1:00 AM59 °FClear.6 mph72%29.98 "Hg10 mi
12:00 AM61 °FClear.6 mph68%29.98 "Hg10 mi
11:00 PM
Wed, Apr 1
61 °FClear.6 mph94%29.98 "Hg10 mi
10:00 PM63 °FClear.No wind77%29.98 "Hg10 mi
9:00 PM66 °FClear.No wind73%29.98 "Hg10 mi
8:00 PM68 °FClear.No wind69%29.98 "Hg10 mi
7:00 PM70 °FClear.No wind60%29.95 "Hg10 mi
6:00 PM73 °FClear.3 mph53%29.95 "Hg10 mi
5:00 PM73 °FSunny.5 mph47%29.95 "Hg10 mi
4:00 PM77 °FSunny.7 mph44%29.95 "Hg10 mi
3:00 PM77 °FSunny.7 mph42%29.98 "Hg10 mi
2:00 PM77 °FSunny.6 mph36%29.98 "Hg10 mi
1:00 PM75 °FPassing clouds.6 mph41%30.01 "HgN/A
12:00 PM75 °FPassing clouds.7 mph41%30.01 "HgN/A
11:00 AM72 °FPassing clouds.6 mph53%30.04 "HgN/A
10:00 AM70 °FPassing clouds.6 mph64%30.04 "HgN/A
9:00 AM61 °FPassing clouds.2 mph88%30.04 "HgN/A
8:00 AM55 °FFog.2 mph94%30.04 "Hg6 mi
7:00 AM52 °FFog.3 mph94%30.01 "Hg1 mi
6:00 AM52 °FPassing clouds.No wind94%30.01 "Hg5 mi
5:00 AM55 °FPassing clouds.No wind94%30.01 "HgN/A
4:00 AM54 °FPassing clouds.No wind94%30.01 "Hg5 mi
Weather by CustomWeather, © 2015

See weather overviewHow to use our weather pages